TimeEDT,TemperatureF,Dew PointF,Humidity,Sea Level PressureIn,VisibilityMPH,Wind Direction,Wind SpeedMPH,Gust SpeedMPH,PrecipitationIn,Events,Conditions,WindDirDegrees,DateUTC
12:53 AM,55.9,48.9,77,30.20,10.0,NNW,10.4,-,N/A,,Partly Cloudy,330,2013-03-15 04:53:00
1:53 AM,55.0,46.9,74,30.20,10.0,NW,9.2,-,N/A,,Partly Cloudy,320,2013-03-15 05:53:00
2:53 AM,55.9,44.1,64,30.18,10.0,NNW,9.2,-,N/A,,Clear,340,2013-03-15 06:53:00
3:53 AM,54.0,44.1,69,30.18,10.0,NNW,10.4,-,N/A,,Clear,330,2013-03-15 07:53:00
4:53 AM,53.1,43.0,69,30.18,10.0,NNW,8.1,-,N/A,,Clear,340,2013-03-15 08:53:00
5:53 AM,51.1,44.1,77,30.20,10.0,NNW,8.1,-,N/A,,Partly Cloudy,330,2013-03-15 09:53:00
6:53 AM,50.0,43.0,77,30.21,10.0,NW,8.1,-,N/A,,Scattered Clouds,320,2013-03-15 10:53:00
7:53 AM,50.0,43.0,77,30.23,10.0,NW,8.1,-,N/A,,Mostly Cloudy,320,2013-03-15 11:53:00
8:53 AM,55.0,43.0,64,30.24,10.0,NNW,9.2,-,N/A,,Mostly Cloudy,330,2013-03-15 12:53:00
9:53 AM,61.0,45.0,56,30.25,10.0,NNW,10.4,-,N/A,,Mostly Cloudy,330,2013-03-15 13:53:00
10:53 AM,66.0,48.0,52,30.25,10.0,NNW,10.4,-,N/A,,Mostly Cloudy,340,2013-03-15 14:53:00
11:53 AM,69.1,48.0,47,30.24,10.0,NE,10.4,-,N/A,,Mostly Cloudy,40,2013-03-15 15:53:00
12:53 PM,70.0,48.0,46,30.24,10.0,NNE,10.4,-,N/A,,Scattered Clouds,20,2013-03-15 16:53:00
1:53 PM,70.0,46.9,44,30.21,10.0,NE,10.4,16.1,N/A,,Mostly Cloudy,50,2013-03-15 17:53:00
2:53 PM,71.1,48.0,44,30.18,10.0,NE,12.7,17.3,N/A,,Mostly Cloudy,40,2013-03-15 18:53:00
3:53 PM,70.0,48.9,47,30.17,10.0,North,5.8,17.3,N/A,,Scattered Clouds,10,2013-03-15 19:53:00
4:53 PM,70.0,50.0,49,30.16,10.0,NE,9.2,-,N/A,,Scattered Clouds,50,2013-03-15 20:53:00
5:53 PM,69.1,50.0,51,30.16,10.0,ENE,9.2,-,N/A,,Scattered Clouds,60,2013-03-15 21:53:00
6:53 PM,68.0,50.0,52,30.17,10.0,North,5.8,-,N/A,,Scattered Clouds,10,2013-03-15 22:53:00
7:53 PM,64.9,52.0,63,30.17,10.0,North,6.9,-,N/A,,Scattered Clouds,10,2013-03-15 23:53:00
8:53 PM,63.0,52.0,67,30.18,10.0,North,4.6,-,N/A,,Scattered Clouds,350,2013-03-16 00:53:00
9:53 PM,62.1,51.1,67,30.19,10.0,North,6.9,-,N/A,,Scattered Clouds,350,2013-03-16 01:53:00
10:53 PM,57.9,51.1,78,30.19,10.0,NNW,4.6,-,N/A,,Partly Cloudy,340,2013-03-16 02:53:00
11:53 PM,57.9,51.1,78,30.19,10.0,Calm,Calm,-,N/A,,Partly Cloudy,0,2013-03-16 03:53:00